Regional Weather Roundup
Issued by NWS Charleston, SC

Current Version | Previous Version | Text Only | Print | Product List | Glossary Off
Versions: 1 2 3 4 5 6 7 8 9 10 11 12 13 14 15 16 17 18 19 20 21 22 23 24 25 26 27 28 29 30 31 32 33 34 35 36 37 38 39 40 41 42 43 44 45 46 47 48 49 50

000
ASUS42 KCHS 310912
RWRCHS

REGIONAL WEATHER ROUNDUP
NATIONAL WEATHER SERVICE CHARLESTON SC
500 AM EDT MON AUG 31 2015

NOTE: "FAIR" INDICATES FEW OR NO CLOUDS BELOW 12,000 FEET WITH NO
SIGNIFICANT WEATHER AND/OR OBSTRUCTIONS TO VISIBILITY.

NOT ALL STATIONS ARE QUALITY CONTROLLED BY THE NATIONAL
WEATHER SERVICE. USE DATA WITH CAUTION...ESPECIALLY
DEWPOINT OBSERVATIONS.

SCZ027-030-031-034>040-042>050-311000-
...SOUTHEAST SOUTH CAROLINA...

CITY           SKY/WX    TMP DP  RH WIND       PRES   REMARKS
N CHARLESTON   LGT RAIN  75  73  93 N6        30.02F
WATERFRONT PRK   N/A     79  77  94 S7        30.00F
MOUNT PLEASANT LGT RAIN  75  75 100 SE5       30.03F
JOHNS ISLAND   DRIZZLE   79  75  89 SE9       30.01F
PINOPOLIS        N/A     77  73  88 W7        29.97R
MONCKS CORNER  HVY RAIN  73  72  94 CALM      30.04F
SUMMERVILLE    LGT RAIN  72  72 100 CALM      30.05S
BEAUFORT MCAS  RAIN      77  75  93 NW6       30.02F
BEAUFORT ARPT  FAIR      77  77 100 CALM      30.01S
HILTON HEAD IS CLOUDY    79  77  94 CALM      30.02R
WALTERBORO     LGT RAIN  73  72  94 CALM      30.04F
ALLENDALE      CLOUDY    73  73 100 CALM      30.03S

...SOUTHERN MIDLANDS AND PEE DEE...

CITY           SKY/WX    TMP DP  RH WIND       PRES   REMARKS
GEORGETOWN     NOT AVBL
KINGSTREE      NOT AVBL
ORANGEBURG     CLOUDY    73  70  90 NE5       30.05S
BARNWELL       CLOUDY    72  72 100 N6        30.05F
AIKEN          CLOUDY    59  59 100 N5        30.10F FOG
MANNING        PTSUNNY   72  72 100 CALM      30.04F
COLUMBIA       CLOUDY    71  68  90 N6        30.05F
SUMTER         MOCLDY    70  68  94 N6        30.04F
FLORENCE       LGT RAIN  72  70  93 NW6       30.07R FOG
MYRTLE BEACH   CLOUDY    77  72  83 S12       30.07F
N MYRTLE BEACH CLOUDY    80  74  81 S8        30.04F

$$

GAZ063-065-086>088-099>101-113>116-118-119-134>141-150-311000-
...SOUTHEAST GEORGIA...

CITY           SKY/WX    TMP DP  RH WIND       PRES   REMARKS
SAVANNAH ARPT  MOCLDY    74  73  97 CALM      30.02S
HUNTER AAF     CLOUDY    74  74 100 NE2       29.99R
FORT STEWART   CLOUDY    74  73  95 CALM      29.99S
STATESBORO     CLOUDY    73  32  22 N3        30.02F
SYLVANIA       CLOUDY    74  74 100 E3        30.04S FOG
CLAXTON        NOT AVBL

...CSRA...CENTRAL AND FAR SOUTHEAST GEORGIA...

CITY           SKY/WX    TMP DP  RH WIND       PRES   REMARKS
THOMSON        CLOUDY    70  70 100 N3        30.12S
AUGUSTA-BUSH   CLOUDY    68  68 100 NW8       30.05S FOG
AUGUSTA-DANIEL CLOUDY    70  67  90 N9        30.07S FOG
SWAINSBORO     CLOUDY   N/A N/A N/A NE3       30.04F FOG
VIDALIA        CLOUDY    73  72  94 NE3       30.03S
EASTMAN        CLOUDY    74  74 100 CALM      30.06S FOG
HAZLEHURST     CLOUDY    76  76 100 CALM      30.02S
ALMA           CLOUDY    75  74  96 CALM      30.01S
WAYCROSS       CLOUDY    78  78 100 CALM      30.01S
JESUP          CLOUDY    77  77 100 CALM      30.01S FOG
BAXLEY         CLOUDY    75  73  94 CALM      30.01S FOG
BRUNSWICK      MOCLDY    73  73 100 CALM      30.00S
SAINT SIMONS   MOCLDY    77  76  96 W3        29.98S

$$

SCZ027-028-034-036>038-045-046-048>050-GAZ119-141-311000-
...LAKE AND SUPPLEMENTAL COASTAL OBSERVATIONS...

STATION/POSITION TIME  TEMP    WIND        PRES    WAVE   SWELL
                       AIR SEA DIR/SP/G            HT/PER HT/PER/DIR
                 (UTC) (F)     (DEG/KT/KT) (MB)    (FT/S) (FT/S/D)
UPR LAKE MARION  NOT AVBL
WINYAH BAY       NOT AVBL
LAKE MURRAY      0800   68     350/  2/  6 1017.9F
ACE BASIN NERRS  NOT AVBL
FORT PULASKI     NOT AVBL
SAPELO ISLAND    0800   79     130/  2     1016.0S

$$

ANZ835-935-AMZ111-154-330-350-352-354-370-450-454-472-311000-
...C-MAN AND BUOY OBSERVATIONS...

STATION/POSITION TIME  TEMP    WIND        PRES    WAVE   SWELL
                       AIR SEA DIR/SP/G            HT/PER HT/PER/DIR
                 (UTC) (F)     (DEG/KT/KT) (MB)    (FT/S) (FT/S/D)
BUOY 41004       0850   81 84  150/ 19/ 25 1016.1F   6/10   5/10
BUOY 41008       0850   82 84  180/ 10/ 12 1015.4F   5/10   5/110/10
FOLLY BEACH CMAN 0800   80     170/ 18/ 20 1016.8F
CAPERS NEARSHORE 0808   80     160/ 17/ 33 1017.2F
FRIPP NEARSHORE  0800   81     170/ 17/ 21 1015.6F


STATION/POSITION TIME  TEMP    WIND        PRES    WAVE   SWELL
                       AIR SEA DIR/SP/G            HT/PER HT/PER/DIR
                 (UTC) (F)     (DEG/KT/KT) (MB)    (FT/S) (FT/S/D)
5E ST. MARYS GA  0821      85                N/A     5/10   2/110/11
FRYING PAN BUOY  0850   82 82  130/ 10/ 12 1018.5F   4/10   3/140/10
BUOY 41025       0850   80 83   40/  4/  6 1019.6F   3/ 9   3/130/ 9
CAPE LOOKOUT NC  0800   79     130/  6/  7 1019.5S
BUOY 41002       0850   83 84  170/  8/ 10 1019.8F   4/ 8   3/160/ 8
BUOY 41010       0820   81 85  130/ 10/ 12 1017.0F
ST AUGUSTINE FL  0900   76 83  220/  6/  7 1016.5R


$$



USA.gov is the U.S. government's official web portal to all federal, state and local government web resources and services.